Blackpool, United Kingdom

11:46 AM BST on August 24, 2016 (GMT +0100)
Blackpool

Weather History for EGNH - March, 2014

Change the Weather History Date:

Monday, March 24, 2014

  Actual Average Record
Temperature  
Mean Temperature 40 °F -  
Max Temperature 52 °F 51 °F 68 °F (2012)
Min Temperature 28 °F 40 °F 28 °F (2014)
Degree Days  
Heating Degree Days 25    
Moisture  
Dew Point 32 °F    
Average Humidity 64    
Maximum Humidity 100    
Minimum Humidity 30    
Precipitation  
Precipitation 0.00 in - - ()
Sea Level Pressure  
Sea Level Pressure 29.77 in    
Wind  
Wind Speed 12 mph ()    
Max Wind Speed 25 mph    
Max Gust Speed 37 mph    
Visibility 6.2 miles    
Events Rain    
Averages and records for this station are not official NWS values.
T = Trace of Precipitation, MM = Missing Value Source: Averaged Metar Reports

Daily Weather History Graph

Daily Weather History Graph

Search for Another Location

Airport or City:

Trip Planner

Search our weather history database for the weather conditions in past years. The results will help you decide how hot, cold, wet, or windy it might be!

Date:

Astronomy

Mar. 24, 2014 Rise Set
Actual Time 6:05 AM GMT 6:32 PM GMT
Civil Twilight 5:29 AM GMT 7:08 PM GMT
Nautical Twilight 4:47 AM GMT 7:50 PM GMT
Astronomical Twilight 4:03 AM GMT 8:35 PM GMT
Moon 2:11 AM GMT 10:53 AM GMT
Length of Visible Light 13h 38m
Length of Day
12h 27m
Last Quarter, 45% of the Moon is Illuminated
Mar 24
Last Quarter
Mar 30
New
Apr 7
First Quarter
Apr 15
Full
Apr 22
Last Quarter

Hourly Weather History & Observations

Time (GMT) Temp. Windchill Dew Point Humidity Pressure Visibility Wind Dir Wind Speed Gust Speed Precip Events Conditions
12:00 AM 36 °F - 32 °F 79%  in - NW 1.2 mph - -  
1:00 AM 32 °F - 29 °F 86%  in - East 3.5 mph - -  
2:00 AM 30 °F - 28 °F 90%  in - ESE 4.6 mph - -  
3:00 AM 29 °F - 28 °F 95%  in - East 6.9 mph - -  
4:00 AM 29 °F - 28 °F 93%  in - ESE 8.1 mph - -  
5:00 AM 29 °F - 29 °F 98%  in - ESE 9.2 mph - -  
6:00 AM 28 °F - 27 °F 95%  in - ESE 8.1 mph - -  
6:20 AM 30.2 °F 23.4 °F 28.4 °F 93% 29.89 in - East 6.9 mph - N/A   Clear
6:50 AM 30.2 °F 21.9 °F 30.2 °F 100% 29.89 in - East 9.2 mph - N/A   Clear
7:00 AM 31 °F - 30 °F 93%  in - ESE 9.2 mph - -  
7:20 AM 32.0 °F 24.2 °F 32.0 °F 100% 29.89 in - East 9.2 mph - N/A   Clear
7:50 AM 33.8 °F 25.8 °F 33.8 °F 100% 29.89 in - East 10.4 mph - N/A   Clear
8:00 AM 35 °F - 34 °F 94%  in - ESE 10.4 mph - -  
8:20 AM 39.2 °F 32.0 °F 37.4 °F 93% 29.89 in - ESE 11.5 mph - N/A   Clear
8:50 AM 41.0 °F 34.3 °F 37.4 °F 87% 29.86 in - ESE 11.5 mph - N/A   Clear
9:00 AM 41 °F - 35 °F 73%  in - SE 12.7 mph - -  
9:20 AM 42.8 °F 36.2 °F 37.4 °F 81% 29.86 in - SE 12.7 mph - N/A   Clear
9:50 AM 44.6 °F 37.8 °F 37.4 °F 76% 29.86 in - SE 15.0 mph - N/A   Clear
10:00 AM 45 °F - 36 °F 61%  in - SSE 16.1 mph - -  
10:20 AM 46.4 °F 39.8 °F 37.4 °F 71% 29.86 in 6.2 mi SE 16.1 mph - N/A   Partly Cloudy
10:50 AM 48.2 °F - 35.6 °F 62% 29.83 in 6.2 mi SSE 17.3 mph - N/A   Partly Cloudy
11:00 AM 47 °F - 33 °F 46%  in - SSE 19.6 mph - -  
11:20 AM 48.2 °F - 33.8 °F 58% 29.83 in 6.2 mi SE 19.6 mph - N/A   Partly Cloudy
11:50 AM 48.2 °F - 33.8 °F 58% 29.80 in 6.2 mi SE 20.7 mph - N/A   Partly Cloudy
12:00 PM 49 °F - 32 °F 40%  in - SSE 21.9 mph - -  
12:20 PM 50.0 °F - 32.0 °F 50% 29.80 in 6.2 mi SE 20.7 mph - N/A   Partly Cloudy
12:50 PM 50.0 °F - 32.0 °F 50% 29.77 in 6.2 mi SE 20.7 mph - N/A   Partly Cloudy
1:00 PM 50 °F - 33 °F 40%  in - SSE 21.9 mph - -  
1:20 PM 51.8 °F - 32.0 °F 47% 29.77 in 6.2 mi SE 20.7 mph - N/A   Partly Cloudy
1:50 PM 51.8 °F - 32.0 °F 47% 29.74 in 6.2 mi SE 21.9 mph - N/A   Partly Cloudy
2:00 PM 51 °F - 31 °F 35%  in - SE 21.9 mph - -  
2:20 PM 51.8 °F - 32.0 °F 47% 29.74 in 6.2 mi SE 18.4 mph - N/A   Partly Cloudy
2:50 PM 51.8 °F - 30.2 °F 44% 29.74 in 6.2 mi SSE 23.0 mph - N/A   Partly Cloudy
3:00 PM 52 °F - 30 °F 30%  in - SSE 23.0 mph - -  
3:20 PM 50.0 °F - 30.2 °F 47% 29.71 in 6.2 mi SE 21.9 mph - N/A   Partly Cloudy
3:50 PM 50.0 °F - 32.0 °F 50% 29.71 in 6.2 mi SE 21.9 mph 33.4 mph N/A   Partly Cloudy
4:00 PM 49 °F - 31 °F 38%  in - SSE 24.2 mph - -  
4:20 PM 48.2 °F - 32.0 °F 54% 29.71 in 6.2 mi SE 21.9 mph - N/A   Partly Cloudy
4:50 PM 48.2 °F - 32.0 °F 54% 29.71 in 6.2 mi SE 21.9 mph - N/A   Partly Cloudy
5:00 PM 48 °F - 32 °F 41%  in - SE 23.0 mph - -  
5:20 PM 48.2 °F - 32.0 °F 54% 29.68 in 6.2 mi SE 18.4 mph - N/A   Partly Cloudy
5:50 PM 48.2 °F - 32.0 °F 54% 29.68 in 6.2 mi SE 20.7 mph 32.2 mph N/A   Partly Cloudy
6:00 PM 47 °F - 33 °F 45%  in - SSE 23.0 mph - -  
6:20 PM 48.2 °F - 33.8 °F 58% 29.68 in 6.2 mi SE 20.7 mph - N/A   Partly Cloudy
6:50 PM 46.4 °F 38.5 °F 33.8 °F 62% 29.68 in 6.2 mi SE 21.9 mph - N/A   Partly Cloudy
7:00 PM 47 °F - 33 °F 46%  in - SSE 20.7 mph - -  
7:20 PM 46.4 °F 38.7 °F 33.8 °F 62% 29.68 in 6.2 mi SE 20.7 mph - N/A   Partly Cloudy
7:50 PM 46.4 °F 39.2 °F 32.0 °F 57% 29.68 in 6.2 mi SE 18.4 mph - N/A   Partly Cloudy
8:00 PM 46 °F - 32 °F 47%  in - SSE 21.9 mph - -  
8:20 PM 46.4 °F 38.7 °F 33.8 °F 62% 29.65 in 6.2 mi SE 20.7 mph - N/A   Partly Cloudy
8:50 PM 46.4 °F 38.1 °F 33.8 °F 62% 29.65 in 6.2 mi SE 24.2 mph 36.8 mph N/A Rain Light Rain Showers
9:00 PM 46 °F - 33 °F 49%  in - SSE 25.3 mph - -  
10:00 PM 46 °F - 34 °F 53%  in - SSE 25.3 mph - -  
11:00 PM 44 °F - 36 °F 65%  in - SSE 23.0 mph - -